Location: Chandrammap?lem
(16.9200°N, 81.0051°E)
Time: 21:27:17
(UTC+00:00)

Delta 202 - Pass Details

Date: 29 May 2024
Orbit: 781 x 2713 km, 18.5° (Epoch: 14 June)

Event Time Altitude Azimuth Distance (km) Brightness Sun altitude
Rises 14:52:13 0° 263° (W) 3,327 7.5 -23.4°
Reaches altitude 10° 14:54:27 10° 263° (W) 2,481 6.8 -23.9°
Maximum altitude 15:00:16 88° 352° (N) 1,034 4.0 -25.0°
Enters shadow 15:03:06 41° 81° (E) 1,596 4.7 -25.6°
